DLH595 DNPO-DNAA

Flight info

Callsign DLH595
Flight time 0h 51m
Altitude 35000
Route ETVUN2S ETVUN H206 APVOT UH206 ENG UJ707 ULSIX J707 AMTIR UJ707 NANUV NANUV1N
Aircraft A343/H-SDE2E3FGHIJ3J5M1P2RWXYZ/LB1D1

Departure

Time 2026-04-27 15:20
Airport Port Harcourt International Airport (DNPO)

Arrival

Time 2026-04-27 16:12
Airport Nnamdi Azikiwe International Airport (DNAA)
Time Latitude Longitude Altitude Speed Heading
2026-04-27 14:49 5.00822 6.94936 79 ft 0 kts 207°
2026-04-27 15:14 5.00821 6.94936 79 ft 0 kts 207°
2026-04-27 15:14 5.00815 6.94933 79 ft 3 kts 207°
2026-04-27 15:14 5.00793 6.94910 80 ft 5 kts 252°
2026-04-27 15:14 5.00814 6.94859 79 ft 11 kts 299°
2026-04-27 15:15 5.00884 6.94830 82 ft 12 kts 20°
2026-04-27 15:15 5.00968 6.94875 80 ft 15 kts 28°
2026-04-27 15:15 5.01080 6.94936 78 ft 21 kts 28°
2026-04-27 15:15 5.01222 6.95012 80 ft 24 kts 28°
2026-04-27 15:16 5.01374 6.95092 81 ft 25 kts 27°
2026-04-27 15:16 5.01526 6.95173 85 ft 25 kts 27°
2026-04-27 15:16 5.01681 6.95254 86 ft 26 kts 28°
2026-04-27 15:16 5.01840 6.95341 85 ft 26 kts 28°
2026-04-27 15:17 5.02006 6.95432 84 ft 28 kts 28°
2026-04-27 15:17 5.02182 6.95527 84 ft 29 kts 28°
2026-04-27 15:17 5.02365 6.95625 83 ft 30 kts 28°
2026-04-27 15:17 5.02493 6.95693 84 ft 9 kts 28°
2026-04-27 15:18 5.02553 6.95725 86 ft 10 kts 28°
2026-04-27 15:18 5.02629 6.95743 83 ft 12 kts 349°
2026-04-27 15:18 5.02681 6.95674 82 ft 14 kts 297°
2026-04-27 15:18 5.02711 6.95615 83 ft 1 kts 294°
2026-04-27 15:19 5.02713 6.95584 81 ft 5 kts 253°
2026-04-27 15:19 5.02688 6.95568 82 ft 5 kts 208°
2026-04-27 15:19 5.02685 6.95566 80 ft 3 kts 208°
2026-04-27 15:19 5.02522 6.95479 81 ft 59 kts 208°
2026-04-27 15:20 5.01972 6.95184 88 ft 118 kts 208°
2026-04-27 15:20 5.01102 6.94719 135 ft 161 kts 207°
2026-04-27 15:20 5.00106 6.94190 759 ft 164 kts 207°
2026-04-27 15:20 4.99077 6.93641 1384 ft 175 kts 207°
2026-04-27 15:21 4.97917 6.93020 1767 ft 203 kts 207°
2026-04-27 15:21 4.96624 6.92326 2520 ft 213 kts 207°
2026-04-27 15:21 4.95311 6.91621 3507 ft 216 kts 208°
2026-04-27 15:21 4.93970 6.90901 4433 ft 222 kts 207°
2026-04-27 15:22 4.92585 6.90159 5321 ft 229 kts 206°
2026-04-27 15:22 4.91161 6.89396 5961 ft 236 kts 205°
2026-04-27 15:22 4.89696 6.88611 6280 ft 240 kts 205°
2026-04-27 15:22 4.88214 6.87830 6339 ft 240 kts 202°
2026-04-27 15:23 4.86620 6.87423 6338 ft 235 kts 175°
2026-04-27 15:23 4.85104 6.87865 6342 ft 226 kts 143°
2026-04-27 15:23 4.84079 6.89016 6352 ft 222 kts 114°
2026-04-27 15:23 4.83548 6.90466 6351 ft 223 kts 105°
2026-04-27 15:24 4.83124 6.91965 6346 ft 224 kts 105°
2026-04-27 15:24 4.82705 6.93468 6348 ft 224 kts 105°
2026-04-27 15:24 4.82279 6.94970 6351 ft 224 kts 105°
2026-04-27 15:24 4.81848 6.96467 6350 ft 224 kts 105°
2026-04-27 15:25 4.81412 6.97969 6355 ft 224 kts 105°
2026-04-27 15:25 4.81153 6.99498 6642 ft 225 kts 89°
2026-04-27 15:25 4.81574 7.00990 7341 ft 233 kts 61°
2026-04-27 15:25 4.82746 7.02229 7878 ft 260 kts 39°
2026-04-27 15:26 4.84293 7.03263 8585 ft 273 kts 36°
2026-04-27 15:26 4.85917 7.04293 9451 ft 279 kts 36°
2026-04-27 15:26 4.87571 7.05355 10247 ft 288 kts 36°
2026-04-27 15:26 4.89319 7.06497 10641 ft 311 kts 36°
2026-04-27 15:27 4.91181 7.07723 11060 ft 328 kts 36°
2026-04-27 15:27 4.93114 7.08997 11732 ft 335 kts 36°
2026-04-27 15:27 4.95078 7.10295 12480 ft 341 kts 36°
2026-04-27 15:27 4.97073 7.11615 13212 ft 346 kts 36°
2026-04-27 15:28 4.99098 7.12955 13924 ft 351 kts 36°
2026-04-27 15:28 5.01153 7.14317 14574 ft 357 kts 35°
2026-04-27 15:28 5.03238 7.15699 15235 ft 362 kts 35°
2026-04-27 15:28 5.05324 7.17082 15900 ft 367 kts 35°
2026-04-27 15:29 5.07464 7.18502 16579 ft 372 kts 35°
2026-04-27 15:29 5.09633 7.19942 17269 ft 377 kts 35°
2026-04-27 15:29 5.11805 7.21439 17961 ft 381 kts 36°
2026-04-27 15:29 5.13990 7.22982 18577 ft 386 kts 37°
2026-04-27 15:30 5.16191 7.24534 19202 ft 389 kts 37°
2026-04-27 15:30 5.18413 7.26097 19835 ft 392 kts 36°
2026-04-27 15:30 5.20656 7.27671 20460 ft 395 kts 36°
2026-04-27 15:30 5.22916 7.29255 21076 ft 398 kts 36°
2026-04-27 15:31 5.25194 7.30852 21681 ft 401 kts 36°
2026-04-27 15:31 5.27492 7.32461 22289 ft 404 kts 36°
2026-04-27 15:31 5.29811 7.34085 22874 ft 408 kts 36°
2026-04-27 15:31 5.32144 7.35719 23471 ft 411 kts 36°
2026-04-27 15:32 5.34496 7.37367 23936 ft 414 kts 36°
2026-04-27 15:32 5.36897 7.38983 24407 ft 418 kts 32°
2026-04-27 15:32 5.39511 7.40276 24889 ft 422 kts 21°
2026-04-27 15:32 5.42325 7.41097 25370 ft 425 kts 14°
2026-04-27 15:33 5.45243 7.41718 25858 ft 428 kts 12°
2026-04-27 15:33 5.48183 7.42249 26326 ft 430 kts 11°
2026-04-27 15:33 5.51146 7.42747 26792 ft 433 kts 10°
2026-04-27 15:33 5.54118 7.43241 27250 ft 435 kts 10°
2026-04-27 15:34 5.57120 7.43750 27692 ft 438 kts 11°
2026-04-27 15:34 5.60129 7.44271 28132 ft 440 kts 11°
2026-04-27 15:34 5.63154 7.44806 28560 ft 443 kts 11°
2026-04-27 15:34 5.66193 7.45350 28990 ft 445 kts 11°
2026-04-27 15:35 5.69244 7.45899 29440 ft 446 kts 11°
2026-04-27 15:35 5.72304 7.46452 29857 ft 448 kts 11°
2026-04-27 15:35 5.75383 7.47008 30183 ft 451 kts 11°
2026-04-27 15:35 5.78481 7.47567 30500 ft 453 kts 11°
2026-04-27 15:36 5.81594 7.48129 30814 ft 456 kts 11°
2026-04-27 15:36 5.84721 7.48692 31133 ft 458 kts 11°
2026-04-27 15:36 5.87867 7.49259 31445 ft 460 kts 11°
2026-04-27 15:36 5.91025 7.49828 31747 ft 462 kts 11°
2026-04-27 15:37 5.94192 7.50398 32106 ft 463 kts 11°
2026-04-27 15:37 5.97353 7.50968 32549 ft 461 kts 11°
2026-04-27 15:37 6.00510 7.51537 32980 ft 460 kts 11°
2026-04-27 15:37 6.03650 7.52103 33389 ft 458 kts 11°
2026-04-27 15:38 6.06784 7.52667 33867 ft 456 kts 11°
2026-04-27 15:38 6.09895 7.53228 34242 ft 454 kts 11°
2026-04-27 15:38 6.13008 7.53789 34518 ft 455 kts 12°
2026-04-27 15:38 6.16123 7.54351 34766 ft 456 kts 12°
2026-04-27 15:39 6.22341 7.55473 34850 ft 447 kts 12°
2026-04-27 15:39 6.28429 7.56571 34847 ft 444 kts 12°
2026-04-27 15:40 6.34508 7.57669 34847 ft 444 kts 12°
2026-04-27 15:40 6.40587 7.58767 34845 ft 444 kts 12°
2026-04-27 15:41 6.46691 7.59843 34841 ft 447 kts
2026-04-27 15:41 6.52912 7.60120 34848 ft 448 kts
2026-04-27 15:42 6.59154 7.60119 34849 ft 449 kts
2026-04-27 15:42 6.64345 7.60079 34848 ft 449 kts
2026-04-27 15:43 6.70586 7.60037 34847 ft 449 kts
2026-04-27 15:43 6.76831 7.60007 34848 ft 449 kts
2026-04-27 15:44 6.83071 7.59982 34846 ft 449 kts
2026-04-27 15:44 6.89315 7.59958 34845 ft 449 kts
2026-04-27 15:45 6.95561 7.59934 34845 ft 449 kts
2026-04-27 15:45 7.01800 7.59908 34846 ft 448 kts
2026-04-27 15:46 7.08043 7.59878 34846 ft 449 kts
2026-04-27 15:46 7.14284 7.59846 34842 ft 449 kts
2026-04-27 15:47 7.20525 7.59814 34842 ft 449 kts
2026-04-27 15:47 7.26727 7.59783 34841 ft 449 kts
2026-04-27 15:48 7.32971 7.59753 34812 ft 448 kts
2026-04-27 15:48 7.36080 7.59737 34589 ft 445 kts
2026-04-27 15:49 7.42252 7.59707 34132 ft 444 kts
2026-04-27 15:49 7.45343 7.59692 33907 ft 444 kts
2026-04-27 15:49 7.48432 7.59677 33659 ft 444 kts
2026-04-27 15:49 7.51527 7.59663 33386 ft 445 kts
2026-04-27 15:50 7.54617 7.59653 32861 ft 443 kts
2026-04-27 15:50 7.57705 7.59644 32220 ft 445 kts
2026-04-27 15:50 7.60811 7.59636 31548 ft 448 kts
2026-04-27 15:50 7.63934 7.59628 30859 ft 450 kts
2026-04-27 15:51 7.67075 7.59618 30238 ft 452 kts
2026-04-27 15:51 7.70210 7.59609 29728 ft 450 kts
2026-04-27 15:51 7.73324 7.59600 29181 ft 447 kts
2026-04-27 15:51 7.76425 7.59590 28669 ft 443 kts
2026-04-27 15:52 7.79487 7.59581 28169 ft 439 kts
2026-04-27 15:52 7.82532 7.59571 27661 ft 436 kts
2026-04-27 15:52 7.85557 7.59562 27154 ft 433 kts
2026-04-27 15:52 7.88564 7.59552 26643 ft 431 kts
2026-04-27 15:53 7.91555 7.59543 26140 ft 429 kts
2026-04-27 15:53 7.94531 7.59535 25643 ft 426 kts
2026-04-27 15:53 7.97488 7.59527 25143 ft 424 kts
2026-04-27 15:53 8.00394 7.59519 24645 ft 422 kts
2026-04-27 15:54 8.03325 7.59511 24153 ft 420 kts
2026-04-27 15:54 8.06243 7.59503 23662 ft 419 kts
2026-04-27 15:54 8.09152 7.59493 23101 ft 418 kts
2026-04-27 15:54 8.12053 7.59475 22554 ft 416 kts
2026-04-27 15:55 8.14933 7.59457 22054 ft 412 kts
2026-04-27 15:55 8.17788 7.59439 21568 ft 409 kts
2026-04-27 15:55 8.20622 7.59421 21077 ft 406 kts
2026-04-27 15:55 8.23435 7.59404 20593 ft 403 kts
2026-04-27 15:56 8.26218 7.59203 20100 ft 402 kts 350°
2026-04-27 15:56 8.28925 7.58507 19613 ft 400 kts 344°
2026-04-27 15:56 8.31575 7.57691 19119 ft 398 kts 343°
2026-04-27 15:56 8.34221 7.56865 18644 ft 396 kts 343°
2026-04-27 15:57 8.36852 7.56047 18140 ft 395 kts 343°
2026-04-27 15:57 8.39471 7.55237 17603 ft 393 kts 344°
2026-04-27 15:57 8.42075 7.54433 17100 ft 389 kts 344°
2026-04-27 15:57 8.44656 7.53638 16633 ft 385 kts 345°
2026-04-27 15:58 8.47194 7.52856 16146 ft 380 kts 345°
2026-04-27 15:58 8.49718 7.52079 15668 ft 378 kts 345°
2026-04-27 15:58 8.52228 7.51307 15201 ft 376 kts 346°
2026-04-27 15:58 8.54689 7.50551 14731 ft 374 kts 346°
2026-04-27 15:59 8.57175 7.49786 14271 ft 373 kts 346°
2026-04-27 15:59 8.59654 7.49024 13793 ft 372 kts 346°
2026-04-27 15:59 8.62128 7.48263 13288 ft 371 kts 347°
2026-04-27 15:59 8.64587 7.47507 12794 ft 369 kts 347°
2026-04-27 16:00 8.67030 7.46755 12325 ft 366 kts 347°
2026-04-27 16:00 8.69458 7.46008 11861 ft 363 kts 347°
2026-04-27 16:00 8.71867 7.45266 11389 ft 361 kts 347°
2026-04-27 16:00 8.74258 7.44531 10934 ft 358 kts 347°
2026-04-27 16:01 8.76632 7.43801 10473 ft 355 kts 348°
2026-04-27 16:01 8.78954 7.43084 10332 ft 342 kts 348°
2026-04-27 16:01 8.81185 7.42393 10228 ft 329 kts 348°
2026-04-27 16:01 8.83338 7.41728 10127 ft 319 kts 348°
2026-04-27 16:02 8.85424 7.41084 9964 ft 307 kts 348°
2026-04-27 16:02 8.87431 7.40466 9293 ft 299 kts 349°
2026-04-27 16:02 8.89391 7.39863 8867 ft 291 kts 348°
2026-04-27 16:02 8.91339 7.39267 8511 ft 294 kts 348°
2026-04-27 16:03 8.93308 7.38761 8203 ft 290 kts 357°
2026-04-27 16:03 8.95308 7.38639 7870 ft 287 kts
2026-04-27 16:03 8.97305 7.38636 7544 ft 286 kts
2026-04-27 16:03 8.99292 7.38644 7168 ft 285 kts
2026-04-27 16:04 9.01276 7.38649 6848 ft 285 kts
2026-04-27 16:04 9.03235 7.38806 6497 ft 281 kts 16°
2026-04-27 16:04 9.04976 7.39614 6155 ft 272 kts 35°
2026-04-27 16:04 9.06466 7.40643 5908 ft 254 kts 37°
2026-04-27 16:05 9.07865 7.41649 5689 ft 241 kts 37°
2026-04-27 16:05 9.09218 7.42622 5482 ft 237 kts 37°
2026-04-27 16:05 9.10588 7.43521 5277 ft 234 kts 27°
2026-04-27 16:05 9.12161 7.43897 5067 ft 234 kts 359°
2026-04-27 16:06 9.13706 7.43433 4930 ft 235 kts 328°
2026-04-27 16:06 9.14879 7.42289 4671 ft 237 kts 308°
2026-04-27 16:06 9.15831 7.40934 4484 ft 234 kts 304°
2026-04-27 16:06 9.16538 7.39512 4358 ft 220 kts 284°
2026-04-27 16:07 9.16484 7.38042 4138 ft 207 kts 249°
2026-04-27 16:07 9.15657 7.36889 3922 ft 203 kts 219°
2026-04-27 16:07 9.14509 7.36093 3763 ft 198 kts 211°
2026-04-27 16:07 9.13378 7.35345 3643 ft 193 kts 215°
2026-04-27 16:08 9.12301 7.34563 3440 ft 186 kts 215°
2026-04-27 16:08 9.11274 7.33836 3228 ft 175 kts 215°
2026-04-27 16:08 9.10282 7.33135 2997 ft 173 kts 215°
2026-04-27 16:08 9.09300 7.32437 2772 ft 171 kts 216°
2026-04-27 16:09 9.08353 7.31763 2556 ft 161 kts 215°
2026-04-27 16:09 9.06630 7.30539 2180 ft 142 kts 215°
2026-04-27 16:09 9.05825 7.29967 2016 ft 142 kts 216°
2026-04-27 16:10 9.04201 7.28815 1682 ft 143 kts 216°
2026-04-27 16:10 9.02566 7.27655 1305 ft 141 kts 217°
2026-04-27 16:11 9.01765 7.27088 1141 ft 139 kts 217°
2026-04-27 16:11 9.00632 7.26282 1110 ft 74 kts 214°
2026-04-27 16:12 9.00167 7.26020 1108 ft 17 kts 176°
2026-04-27 16:12 9.00091 7.26073 1107 ft 12 kts 101°
2026-04-27 16:12 9.00211 7.26190 1104 ft 13 kts 35°
2026-04-27 16:13 9.00294 7.26250 1106 ft 16 kts 35°
2026-04-27 16:13 9.00509 7.26402 1107 ft 21 kts 34°
2026-04-27 16:13 9.00600 7.26475 1109 ft 14 kts 60°
2026-04-27 16:14 9.00541 7.26584 1115 ft 11 kts 139°
2026-04-27 16:14 9.00443 7.26677 1134 ft 8 kts 89°
2026-04-27 16:15 9.00487 7.26800 1134 ft 11 kts 69°
2026-04-27 16:15 9.00551 7.26831 1133 ft 1 kts 360°
2026-04-27 16:16 9.00578 7.26831 1134 ft 0 kts